TIME,�g��[���C[MJ/h],����[MJ/h],�Ɩ�[MJ/h],�~�[[MJ/h],�①��[MJ/h],��y���[MJ/h],�Ǝ��q��[MJ/h],���̑�[MJ/h],�����G�l���M�[[MJ/h]
2004/7/1 0:00,0.5747,0,0,0.9753,0.0095,0.0302,0.588,-0.7455,0
2004/7/1 0:15,0.6067,0,0,0.544,0.0102,0.0321,0.1392,-0.3123,0
2004/7/1 0:30,0.6234,0,0,0.8463,0.0104,0.0324,0.4248,-0.5851,0
2004/7/1 0:45,0.6396,0,0,0.8783,0.0102,0.0321,0.4376,-0.6349,0
2004/7/1 1:00,0.6324,0,0,0.866,0.0102,0.0325,0.434,-0.6358,0
2004/7/1 1:15,0.6414,0,0,0.8752,0.0102,0.0325,0.4418,-0.6113,0
2004/7/1 1:30,0.6461,0,0,1.0027,0.0102,0.0324,0.5527,-0.7661,0
2004/7/1 1:45,0.6276,0,0,0.6575,0.0101,0.0323,0.2406,-0.4248,0
2004/7/1 2:00,0.444,0,0,0.6493,0.0102,0.0325,0.3558,-0.3976,0
2004/7/1 2:15,0.0972,0,0,0.4952,0.0099,0.0324,0.4476,-0.2075,0
2004/7/1 2:30,0.0975,0,0,0.4942,0.0101,0.0325,0.4218,-0.2035,0
2004/7/1 2:45,0.0966,0,0,0.4801,0.0101,0.0324,0.4248,-0.2153,0
2004/7/1 3:00,0.0963,0,0,0.5941,0.0101,0.0324,0.5496,-0.3695,0
2004/7/1 3:15,0.0969,0,0,0.6306,0.0101,0.0324,0.5659,-0.3709,0
2004/7/1 3:30,0.0968,0,0,0.67,0.0102,0.0327,0.6376,-0.3475,0
2004/7/1 3:45,0.0972,0,0,0.6677,0.0102,0.0327,0.6038,-0.3701,0
2004/7/1 4:00,0.0972,0,0,0.8119,0.0102,0.0325,0.736,-0.5808,0
2004/7/1 4:15,0.0971,0,0,0.7505,0.0101,0.0327,0.7086,-0.5355,0
2004/7/1 4:30,0.0962,0,0,0.7818,0.0102,0.0325,0.7392,-0.5661,0
2004/7/1 4:45,0.0966,0,0,0.7294,0.0102,0.0325,0.6663,-0.5076,0
2004/7/1 5:00,0.0968,0,0,0.7285,0.0815,0.0327,0.665,-0.5013,0
2004/7/1 5:15,0.0973,0,0,0.7116,0.4699,0.0325,0.6598,-0.4689,0
2004/7/1 5:30,0.0966,0,0,0.7036,0.2503,0.0328,0.6546,-0.4304,0
2004/7/1 5:45,0.0963,0,0,0.701,0,0.0324,0.6409,-0.4693,0
2004/7/1 6:00,0.096,0,0,0.6949,0,0.0325,0.663,-0.4762,0
2004/7/1 6:15,0.0958,0,0,0.701,0,0.0324,0.6287,-0.4853,0
2004/7/1 6:30,0.0962,0,0,0.553,0,0.0324,0.5037,-0.3568,0
2004/7/1 6:45,0.0955,0,0,0.1565,0,0.0324,0.1241,0.0469,0
2004/7/1 7:00,0.2445,0,0,0.636,0,0.0323,0.4209,-0.4399,0
2004/7/1 7:15,0.3999,0,0,1.0827,0,0.0373,0.4264,-0.6196,0
2004/7/1 7:30,0.4,0,0,1.042,0,0.0323,0.4961,-0.6274,0
2004/7/1 7:45,0.3914,0,0,0.9135,0,0.0324,0.573,-0.7271,0
2004/7/1 8:00,0.395,0,0,0.9359,0,0.0323,0.5917,-0.7174,0
2004/7/1 8:15,0.4009,0,0,0.576,0,0.0325,0.2305,-0.1064,0
2004/7/1 8:30,0.1388,0,0,0.4702,0,0.0323,0.3768,-0.2556,0
2004/7/1 8:45,0.0955,0,0,0.4827,0,0.032,0.4195,-0.284,0
2004/7/1 9:00,0.0959,0,0,0.4915,0,0.0323,0.4435,-0.2928,0
2004/7/1 9:15,0.096,0,0,0.4704,0,0.0321,0.4231,-0.2736,0
2004/7/1 9:30,0.096,0,0,0.5881,0,0.0323,0.5345,-0.3731,0
2004/7/1 9:45,0.0968,0,0,0.251,0,0.0321,0.1937,-0.032,0
2004/7/1 10:00,0.0963,0,0,0.4496,0,0.0324,0.3941,-0.2475,0
2004/7/1 10:15,0.0963,0,0,0.4869,0,0.0321,0.4198,-0.2759,0
2004/7/1 10:30,0.0958,0,0,0.4812,0,0.032,0.4323,-0.2858,0
2004/7/1 10:45,0.0966,0,0,0.482,0,0.032,0.4337,-0.2619,0
2004/7/1 11:00,0.0965,0,0,0.5884,0,0.0321,0.5476,-0.3902,0
2004/7/1 11:15,0.0965,0,0,0.2445,0,0.0323,0.1742,-0.0292,0
2004/7/1 11:30,0.0963,0,0,0.4573,0,0.0324,0.418,-0.2511,0
2004/7/1 11:45,0.0966,0,0,0.4959,0,0.0325,0.4372,-0.2834,0
2004/7/1 12:00,0.0965,0,0,0.4771,0,0.0324,0.4136,-0.2619,0
2004/7/1 12:15,0.1008,0,0,0.4869,0,0.0376,0.4303,-0.2825,0
2004/7/1 12:30,0.0966,0,0,0.5034,0,0.0324,0.4608,-0.2851,0
2004/7/1 12:45,0.0968,0,0,0.2569,0,0.0327,0.186,-0.0415,0
2004/7/1 13:00,0.0971,0,0,0.4903,0,0.0325,0.4386,-0.2939,0
2004/7/1 13:15,0.0972,0,0,0.4918,0,0.0327,0.4375,-0.288,0
2004/7/1 13:30,0.0972,0,0,0.4869,0,0.0325,0.4179,-0.2566,0
2004/7/1 13:45,0.0971,0,0,0.5348,0,0.0327,0.485,-0.3354,0
2004/7/1 14:00,0.0971,0,0,0.4864,0,0.0327,0.4198,-0.2661,0
2004/7/1 14:15,0.0972,0,0,0.2858,0,0.0324,0.2375,-0.072,0
2004/7/1 14:30,0.0973,0,0,0.4992,0,0.0325,0.446,-0.2812,0
2004/7/1 14:45,0.0973,0,0,0.4919,0,0.0327,0.4234,-0.2776,0
2004/7/1 15:00,0.0971,0,0,0.4866,0,0.0325,0.4247,-0.2599,0
2004/7/1 15:15,0.0972,0,0,0.5507,0,0.0327,0.4969,-0.339,0
2004/7/1 15:30,0.0968,0,0,0.3106,0,0.0325,0.2621,-0.1076,0
2004/7/1 15:45,0.0966,0,0,0.4162,0,0.0327,0.3479,-0.2035,0
2004/7/1 16:00,0.0969,0,0,0.4936,0,0.0324,0.4429,-0.2843,0
2004/7/1 16:15,0.0968,0,0,0.5106,0,0.0325,0.4514,-0.2932,0
2004/7/1 16:30,0.0972,0,0,0.6097,0,0.0327,0.5615,-0.3918,0
2004/7/1 16:45,0.0971,0,0,0.6222,0,0.0325,0.5566,-0.4124,0
2004/7/1 17:00,0.0969,0,0,0.6641,0,0.0327,0.6202,-0.429,0
2004/7/1 17:15,0.0972,0,0,0.6816,0,0.0325,0.6179,-0.473,0
2004/7/1 17:30,0.0971,0,0,0.6908,0,0.0327,0.6461,-0.4707,0
2004/7/1 17:45,0.0963,0,0,0.634,0,0.0325,0.5727,-0.4183,0
2004/7/1 18:00,0.0958,0,0,0.1312,0,0.0324,0.0691,0.0778,0
2004/7/1 18:15,0.0956,0,0,0.4918,0,0.0324,0.4357,-0.2922,0
2004/7/1 18:30,0.1184,0,0,0.6468,0,0.0324,0.5711,-0.4275,0
2004/7/1 18:45,0.4746,0,0,1.011,0,0.0323,0.5481,-0.7504,0
2004/7/1 19:00,0.6286,0,0,0.9059,0,0.0323,0.5532,-0.7492,0
2004/7/1 19:15,0.5589,0,0,0.8326,0,0.0372,0.5702,-0.705,0
2004/7/1 19:30,0.1692,0,0,0.4514,0,0.0323,0.3792,0.0086,0
2004/7/1 19:45,0.1701,0,0,0.3682,0,0.0324,0.3063,0.1698,0
2004/7/1 20:00,0.1706,0,0,0.6204,0,0.0323,0.5679,-0.076,0
2004/7/1 20:15,0.2981,0,0,0.5115,0,0.0324,0.3884,0.0261,0
2004/7/1 20:30,0.6409,0,0,0.5448,0,0.0325,0.2092,-0.0454,0
2004/7/1 20:45,0.6373,0,0,0.7832,0,0.0321,0.4395,-0.3115,0
2004/7/1 21:00,0.6353,0,0,0.7877,0,0.0323,0.4491,-0.3109,0
2004/7/1 21:15,0.5818,0,0,0.7157,0,0.0323,0.4101,-0.1547,0
2004/7/1 21:30,0.3446,0,0,0.5268,0,0.0325,0.4751,0.2904,0
2004/7/1 21:45,0.344,0,0,0.4975,0,0.0324,0.3951,0.0066,0
2004/7/1 22:00,0.308,0,0,0.5247,0,0.0323,0.4396,-0.235,0
2004/7/1 22:15,0.0956,0,0,0.7115,0,0.0325,0.6048,-0.1388,0
2004/7/1 22:30,0.0955,0,0,0.6803,0,0.0323,0.5453,-0.1695,0
2004/7/1 22:45,0.0952,0,0,0.6929,0,0.0325,0.5782,-0.1731,0
2004/7/1 23:00,0.0955,0,0,0.6813,0,0.0324,0.5347,-0.1662,0
2004/7/1 23:15,0.0969,0,0,0.5155,0,0.0325,0.3944,0.0063,0
2004/7/1 23:30,0.0969,0,0,0.4987,0,0.0325,0.3518,0.0268,0
2004/7/1 23:45,0.0969,0,0,0.7088,0,0.0327,0.5501,-0.1781,0
2004/7/2 0:00,0.0965,0,0,0.3069,0,0.0328,0.1652,0.2288,0
2004/7/2 0:15,0.0962,0,0,0.5237,0,0.0325,0.4,-0.0081,0
2004/7/2 0:30,0.0956,0,0,0.5704,0,0.0325,0.4287,-0.0347,0
2004/7/2 0:45,0.0959,0,0,0.564,0,0.0325,0.4166,-0.0351,0
2004/7/2 1:00,0.0968,0,0,0.5666,0,0.0325,0.4179,-0.0192,0
2004/7/2 1:15,0.1439,0,0,0.48,0,0.0325,0.3318,0.0688,0
2004/7/2 1:30,0.5718,0,0,1.9662,0,0.0327,0.4818,-0.4029,0
2004/7/2 1:45,0.5577,0,0,3.7287,0,0.0328,0.5561,-0.6921,0
2004/7/2 2:00,0.545,0,0,2.4391,0,0.0327,0.5769,-0.6751,0
2004/7/2 2:15,0.4756,0,0,5.1191,0,0.0328,0.6045,-0.5904,0
2004/7/2 2:30,0.4393,0,0,2.7372,0,0.0327,0.6126,-0.6297,0
2004/7/2 2:45,0.5239,0,0,1.1007,0,0.0636,0.7678,-0.9157,0
2004/7/2 3:00,0.235,0,0,0.8806,0,0.0488,0.6813,-0.6487,0
2004/7/2 3:15,0.0962,0,0,0.8002,0,0.0328,0.723,-0.5361,0
2004/7/2 3:30,0.0963,0,0,0.762,0,0.0325,0.6792,-0.505,0
2004/7/2 3:45,0.0953,0,0,0.7354,0,0.0325,0.6412,-0.4825,0
2004/7/2 4:00,0.0943,0,0,0.6991,0,0.0325,0.6562,-0.4797,0
2004/7/2 4:15,0.0942,0,0,0.7004,0,0.0324,0.6656,-0.4825,0
2004/7/2 4:30,0.0945,0,0,0.6803,0,0.0325,0.6222,-0.4703,0
2004/7/2 4:45,0.0946,0,0,0.6913,0,0.0327,0.6402,-0.4507,0
2004/7/2 5:00,0.0949,0,0,0.681,0,0.0325,0.6528,-0.469,0
2004/7/2 5:15,0.0945,0,0,0.6824,0,0.0327,0.6297,-0.4533,0
2004/7/2 5:30,0.0943,0,0,0.3848,0,0.0325,0.3482,-0.1709,0
2004/7/2 5:45,0.0948,0,0,0.1368,0,0.0324,0.0678,0.0801,0
2004/7/2 6:00,0.0942,0,0,0.3155,0,0.0325,0.2745,-0.089,0
2004/7/2 6:15,0.0939,0,0,0.4797,0,0.0325,0.4192,-0.2562,0
2004/7/2 6:30,0.0933,0,0,0.4765,0,0.0323,0.4373,-0.2651,0
2004/7/2 6:45,0.102,0,0,0.4758,0,0.0324,0.4133,-0.2606,0
2004/7/2 7:00,0.3907,0,0,0.8374,0,0.0325,0.502,-0.6598,0
2004/7/2 7:15,0.4136,0,0,0.5701,0,0.0374,0.2081,-0.3953,0
2004/7/2 7:30,0.3894,0,0,1.6325,0,0.0323,0.4149,-0.6908,0
2004/7/2 7:45,0.4025,0,0,0.8735,0,0.0324,0.4422,-0.5594,0
2004/7/2 8:00,0.3957,0,0,0.9024,0,0.0324,0.4908,-0.4631,0
2004/7/2 8:15,0.401,0,0,0.7803,0,0.0324,0.4467,-0.2925,0
2004/7/2 8:30,0.1161,0,0,0.2987,0,0.0325,0.212,-0.0815,0
2004/7/2 8:45,0.095,0,0,0.4742,0,0.0323,0.434,-0.2784,0
2004/7/2 9:00,0.0962,0,0,0.4848,0,0.0325,0.4421,-0.272,0
2004/7/2 9:15,0.0968,0,0,0.464,0,0.0324,0.4232,-0.2629,0
2004/7/2 9:30,0.0968,0,0,0.5286,0,0.0324,0.4667,-0.3154,0
2004/7/2 9:45,0.0968,0,0,0.1653,0,0.0324,0.1168,0.0448,0
2004/7/2 10:00,0.0965,0,0,0.4856,0,0.0324,0.433,-0.2686,0
2004/7/2 10:15,0.0966,0,0,0.4765,0,0.0324,0.4316,-0.2668,0
2004/7/2 10:30,0.0959,0,0,0.4651,0,0.0324,0.4157,-0.2677,0
2004/7/2 10:45,0.0968,0,0,0.4856,0,0.0324,0.4438,-0.2658,0
2004/7/2 11:00,0.0965,0,0,0.2232,0,0.0324,0.1872,-0.0145,0
2004/7/2 11:15,0.0966,0,0,0.4444,0,0.0324,0.3803,-0.2189,0
2004/7/2 11:30,0.0966,0,0,0.4715,0,0.0325,0.4281,-0.2719,0
2004/7/2 11:45,0.0966,0,0,0.473,0,0.0325,0.4221,-0.2586,0
2004/7/2 12:00,0.0972,0,0,0.47,0,0.0325,0.4319,-0.2589,0
2004/7/2 12:15,0.1022,0,0,0.2406,0,0.0373,0.1755,-0.0351,0
2004/7/2 12:30,0.0965,0,0,0.4304,0,0.0324,0.4031,-0.2372,0
2004/7/2 12:45,0.0969,0,0,0.4836,0,0.0325,0.4219,-0.2703,0
2004/7/2 13:00,0.0969,0,0,0.4635,0,0.0325,0.4085,-0.2523,0
2004/7/2 13:15,0.0971,0,0,0.4775,0,0.0327,0.4379,-0.2595,0
2004/7/2 13:30,0.0979,0,0,0.2498,0,0.0328,0.2102,-0.0282,0
2004/7/2 13:45,0.0973,0,0,0.4101,0,0.0325,0.3427,-0.1956,0
2004/7/2 14:00,0.0973,0,0,0.4791,0,0.0328,0.4297,-0.2673,0
2004/7/2 14:15,0.0972,0,0,0.4694,0,0.0327,0.417,-0.2553,0
2004/7/2 14:30,0.0975,0,0,0.4828,0,0.0327,0.4219,-0.2696,0
2004/7/2 14:45,0.0973,0,0,0.3041,0,0.0327,0.2559,-0.0871,0
2004/7/2 15:00,0.0972,0,0,0.3646,0,0.0327,0.3295,-0.1493,0
2004/7/2 15:15,0.0973,0,0,0.4792,0,0.0327,0.4293,-0.2591,0
2004/7/2 15:30,0.0973,0,0,0.483,0,0.0327,0.4248,-0.2686,0
2004/7/2 15:45,0.0972,0,0,0.5119,0,0.0327,0.4831,-0.2995,0
2004/7/2 16:00,0.0972,0,0,0.6005,0,0.0325,0.5275,-0.3839,0
2004/7/2 16:15,0.0973,0,0,0.5949,0,0.0327,0.5511,-0.38,0
2004/7/2 16:30,0.0976,0,0,0.2231,0,0.0327,0.156,-0.0109,0
2004/7/2 16:45,0.0975,0,0,0.6175,0,0.0327,0.5858,-0.4025,0
2004/7/2 17:00,0.0966,0,0,0.607,0,0.0327,0.5384,-0.3979,0
2004/7/2 17:15,0.0968,0,0,0.6041,0,0.0324,0.5548,-0.3996,0
2004/7/2 17:30,0.0965,0,0,0.6005,0,0.0325,0.5629,-0.4114,0
2004/7/2 17:45,0.0962,0,0,0.557,0,0.0323,0.5226,-0.3436,0
2004/7/2 18:00,0.0966,0,0,0.2752,0,0.0325,0.2085,-0.0704,0
2004/7/2 18:15,0.0968,0,0,0.6144,0,0.0324,0.5548,-0.3907,0
2004/7/2 18:30,0.0966,0,0,0.5887,0,0.0325,0.5517,-0.379,0
2004/7/2 18:45,0.258,0,0,0.6915,0,0.0327,0.4496,-0.4144,0
2004/7/2 19:00,0.6129,0,0,1.9506,0,0.0323,0.8395,-1.29,0
2004/7/2 19:15,0.861,0,0,2.5835,0,0.0374,1.3085,-1.7793,0
2004/7/2 19:30,0.8529,0,0,1.3157,0,0.0323,0.59,-0.6866,0
2004/7/2 19:45,0.7747,0,0,1.1661,0,0.0321,0.5292,-0.325,0
2004/7/2 20:00,0.5566,0,0,0.3352,0,0.0323,0.1259,0.312,0
2004/7/2 20:15,0.6356,0,0,0.6647,0,0.0323,0.4527,-0.0832,0
2004/7/2 20:30,0.8394,0,0,0.8581,0,0.0323,0.4514,-0.2794,0
2004/7/2 20:45,0.8392,0,0,0.8482,0,0.0323,0.4147,-0.2981,0
2004/7/2 21:00,0.834,0,0,0.8654,0,0.0324,0.4491,-0.2935,0
2004/7/2 21:15,0.447,0,0,0.7574,0,0.0323,0.553,-0.1051,0
2004/7/2 21:30,0.2618,0,0,0.7026,0,0.0324,0.5632,0.3259,0
2004/7/2 21:45,0.2638,0,0,0.3702,0,0.0325,0.2364,0.4853,0
2004/7/2 22:00,0.2609,0,0,0.4329,0.0043,0.0323,0.3106,0.1025,0
2004/7/2 22:15,0.2308,0,0,0.5609,0.0105,0.0557,0.433,0.2929,0
2004/7/2 22:30,0.0952,0,0,0.5718,0.0104,0.2114,0.4535,0.0534,0
2004/7/2 22:45,0.0952,0,0,0.6708,0.0105,0.2072,0.5259,-0.0452,0
2004/7/2 23:00,0.0945,0,0,0.6876,0.0102,0.2076,0.5643,-0.09,0
2004/7/2 23:15,0.0945,0,0,0.3741,0.0099,0.1272,0.2483,0.2261,0
2004/7/2 23:30,0.0946,0,0,0.6468,0.0101,0.0321,0.4984,-0.0808,0
2004/7/2 23:45,0.096,0,0,0.6934,0.0101,0.0324,0.5566,-0.1145,0
2004/7/3 0:00,0.096,0,0,0.337,0.0101,0.0325,0.2025,0.2349,0
2004/7/3 0:15,0.096,0,0,0.4772,0.0104,0.0323,0.3429,0.1132,0
2004/7/3 0:30,0.0965,0,0,0.5649,0.0104,0.0327,0.4342,0.0121,0
2004/7/3 0:45,0.0969,0,0,0.5707,0.0104,0.0325,0.4265,0.0217,0
2004/7/3 1:00,0.0969,0,0,0.5553,0.0102,0.0328,0.416,0.0395,0
2004/7/3 1:15,0.0948,0,0,0.6899,0.0102,0.0323,0.5547,-0.1155,0
2004/7/3 1:30,0.0942,0,0,0.7294,0.0101,0.0323,0.6077,-0.1493,0
2004/7/3 1:45,0.0949,0,0,0.7786,0.0102,0.0325,0.6699,-0.2,0
2004/7/3 2:00,0.0943,0,0,0.8588,0.0101,0.0323,0.7125,-0.275,0
2004/7/3 2:15,0.0943,0,0,0.8329,0.0101,0.0323,0.6954,-0.2526,0
2004/7/3 2:30,0.0943,0,0,0.8173,0.0101,0.0325,0.6824,-0.2352,0
2004/7/3 2:45,0.0945,0,0,0.806,0.0099,0.0325,0.6836,-0.2052,0
2004/7/3 3:00,0.0945,0,0,0.7888,0.0101,0.0325,0.6558,-0.2055,0
2004/7/3 3:15,0.0952,0,0,0.7302,0.0102,0.0325,0.6329,-0.3662,0
2004/7/3 3:30,0.0949,0,0,0.6991,0.0102,0.0327,0.6504,-0.4689,0
2004/7/3 3:45,0.0943,0,0,0.6895,0.0102,0.0325,0.6513,-0.4739,0
2004/7/3 4:00,0.0937,0,0,0.6913,0.0101,0.0325,0.648,-0.4804,0
2004/7/3 4:15,0.0943,0,0,0.671,0.0102,0.0325,0.6316,-0.4517,0
2004/7/3 4:30,0.0946,0,0,0.6885,0.0102,0.0324,0.6441,-0.4677,0
2004/7/3 4:45,0.095,0,0,0.6656,0.0101,0.0327,0.6098,-0.4478,0
2004/7/3 5:00,0.0952,0,0,0.2802,0.0151,0.0325,0.2432,-0.0544,0
2004/7/3 5:15,0.0965,0,0,0.344,0.5124,0.0327,0.3092,-0.1092,0
2004/7/3 5:30,0.0958,0,0,0.4774,0.3138,0.0327,0.4077,-0.2467,0
2004/7/3 5:45,0.0943,0,0,0.467,0,0.0325,0.4355,-0.2441,0
2004/7/3 6:00,0.0943,0,0,0.2373,0,0.0325,0.1731,-0.0151,0
2004/7/3 6:15,0.0936,0,0,0.4196,0,0.0324,0.3865,-0.1899,0
2004/7/3 6:30,0.0936,0,0,0.4749,0,0.0325,0.4313,-0.2701,0
2004/7/3 6:45,0.0946,0,0,0.4654,0,0.0325,0.4167,-0.2402,0
2004/7/3 7:00,0.0956,0,0,0.196,0,0.0325,0.1336,0.013,0
2004/7/3 7:15,0.3597,0,0,0.7429,0,0.0374,0.4519,-0.5547,0
2004/7/3 7:30,0.3946,0,0,3.0728,0,0.0325,0.4117,-1.3941,0
2004/7/3 7:45,0.394,0,0,0.9845,0,0.0325,0.4824,-0.6227,0
2004/7/3 8:00,0.3912,0,0,1.0001,0,0.0324,0.5684,-0.6852,0
2004/7/3 8:15,0.3862,0,0,0.9046,0,0.0323,0.5512,-0.6607,0
2004/7/3 8:30,0.3936,0,0,0.9412,0,0.0325,0.6245,-0.7311,0
2004/7/3 8:45,0.396,0,0,0.5746,0,0.032,0.2372,-0.4,0
2004/7/3 9:00,0.3959,0,0,0.7596,0,0.0323,0.4262,-0.5831,0
2004/7/3 9:15,0.4149,0,0,0.7907,0,0.0323,0.4239,-0.5671,0
2004/7/3 9:30,0.3603,0,0,0.7731,0,0.0324,0.4768,-0.3236,0
2004/7/3 9:45,0.0968,0,0,0.4052,0,0.0325,0.3718,-0.1925,0
2004/7/3 10:00,0.096,0,0,0.3146,0,0.0325,0.2578,-0.1034,0
2004/7/3 10:15,0.0965,0,0,0.4732,0,0.0324,0.4427,-0.2713,0
2004/7/3 10:30,0.0962,0,0,0.4654,0,0.0325,0.4188,-0.2497,0
2004/7/3 10:45,0.0962,0,0,0.4658,0,0.0325,0.4267,-0.2651,0
2004/7/3 11:00,0.0958,0,0,0.3342,0,0.0321,0.2788,-0.1191,0
2004/7/3 11:15,0.0946,0,0,0.3262,0,0.0323,0.3119,-0.1228,0
2004/7/3 11:30,0.095,0,0,0.4821,0,0.0325,0.4105,-0.2668,0
2004/7/3 11:45,0.0955,0,0,0.4637,0,0.0323,0.4251,-0.2651,0
2004/7/3 12:00,0.0962,0,0,0.472,0,0.0324,0.4048,-0.2544,0
2004/7/3 12:15,0.1001,0,0,0.3586,0,0.0373,0.3239,-0.1447,0
2004/7/3 12:30,0.0952,0,0,0.3156,0,0.0324,0.2625,-0.1071,0
2004/7/3 12:45,0.0952,0,0,0.4684,0,0.0323,0.4297,-0.2608,0
2004/7/3 13:00,0.0963,0,0,0.4694,0,0.0325,0.4373,-0.2624,0
2004/7/3 13:15,0.0969,0,0,0.4697,0,0.0327,0.4082,-0.2527,0
2004/7/3 13:30,0.0956,0,0,0.3136,0,0.0325,0.2821,-0.1054,0
2004/7/3 13:45,0.0965,0,0,0.3387,0,0.0324,0.2791,-0.1283,0
2004/7/3 14:00,0.0963,0,0,0.4802,0,0.0325,0.4432,-0.2691,0
2004/7/3 14:15,0.0966,0,0,0.4717,0,0.0324,0.4052,-0.2519,0
2004/7/3 14:30,0.0965,0,0,0.4645,0,0.0324,0.42,-0.2555,0
2004/7/3 14:45,0.0969,0,0,0.3419,0,0.0325,0.2949,-0.1377,0
2004/7/3 15:00,0.0963,0,0,0.3156,0,0.0324,0.2709,-0.1248,0
2004/7/3 15:15,0.0972,0,0,0.4812,0,0.0325,0.4262,-0.2497,0
2004/7/3 15:30,0.0972,0,0,0.469,0,0.0325,0.4208,-0.2674,0
2004/7/3 15:45,0.0968,0,0,0.5538,0,0.0327,0.4958,-0.3357,0
2004/7/3 16:00,0.0972,0,0,0.5864,0,0.0327,0.5613,-0.3727,0
2004/7/3 16:15,0.0973,0,0,0.57,0,0.0324,0.4948,-0.3514,0
2004/7/3 16:30,0.0972,0,0,0.2683,0,0.0328,0.232,-0.0456,0
2004/7/3 16:45,0.0969,0,0,0.6227,0,0.0325,0.5865,-0.4123,0
2004/7/3 17:00,0.0972,0,0,0.5975,0,0.0325,0.536,-0.3766,0
2004/7/3 17:15,0.0973,0,0,0.6085,0,0.0325,0.5381,-0.3953,0
2004/7/3 17:30,0.0968,0,0,0.6024,0,0.0324,0.5573,-0.3868,0
2004/7/3 17:45,0.0969,0,0,0.3277,0,0.0323,0.2922,-0.1309,0
2004/7/3 18:00,0.0956,0,0,0.4604,0,0.0324,0.3964,-0.2461,0
2004/7/3 18:15,0.2004,0,0,0.7116,0,0.0323,0.5596,-0.5129,0
2004/7/3 18:30,0.3799,0,0,0.8834,0,0.0324,0.5541,-0.6877,0
2004/7/3 18:45,0.432,0,0,0.684,0,0.0321,0.3462,-0.528,0
2004/7/3 19:00,0.5599,0,0,0.6984,0,0.0323,0.3635,-0.5803,0
2004/7/3 19:15,0.6689,0,0,0.9037,0,0.0373,0.5741,-0.7576,0
2004/7/3 19:30,0.7803,0,0,0.9491,0,0.0321,0.524,-0.3912,0
2004/7/3 19:45,0.8572,0,0,1.0276,0,0.0323,0.2736,-0.058,0
2004/7/3 20:00,0.8158,0,0,1.2034,0,0.0324,0.5491,-0.3789,0
2004/7/3 20:15,0.6036,0,0,0.7641,0,0.0321,0.6045,-0.1633,0
2004/7/3 20:30,0.8613,0,0,1.0153,0,0.0323,0.5626,-0.3604,0
2004/7/3 20:45,0.8574,0,0,0.9982,0,0.0321,0.5597,-0.4334,0
2004/7/3 21:00,0.8486,0,0,0.9865,0,0.0323,0.5636,-0.444,0
2004/7/3 21:15,1.0129,0,0,1.021,0,0.1892,0.5911,-0.9687,0
2004/7/3 21:30,0.8389,0,0,0.8423,0,0.0323,0.4297,-0.6136,0
2004/7/3 21:45,0.8401,0,0,0.5678,0,0.0324,0.1611,-0.345,0
2004/7/3 22:00,0.8369,0,0,0.8477,0,0.0321,0.4357,-0.6303,0
2004/7/3 22:15,0.5141,0,0,0.6447,0,0.0324,0.4293,-0.093,0
2004/7/3 22:30,0.2622,0,0,0.5134,0,0.0323,0.4215,0.1922,0
2004/7/3 22:45,0.2007,0,0,0.6947,0,0.0336,0.5668,-0.307,0
2004/7/3 23:00,0.0952,0,0,0.4442,0,0.0321,0.3816,-0.1597,0
2004/7/3 23:15,0.0962,0,0,0.4074,0,0.0325,0.3548,-0.1215,0
2004/7/3 23:30,0.0956,0,0,0.6078,0,0.0324,0.5643,-0.3617,0
2004/7/3 23:45,0.0937,0,0,0.4362,0,0.0323,0.4039,-0.2102,0
2004/7/4 0:00,0.095,0,0,0.2419,0,0.0324,0.1934,-0.0248,0
2004/7/4 0:15,0.0953,0,0,0.4938,0,0.0324,0.4516,-0.2782,0
2004/7/4 0:30,0.0942,0,0,0.6458,0,0.0324,0.61,-0.4421,0
2004/7/4 0:45,0.0945,0,0,0.6479,0,0.0323,0.5917,-0.429,0
2004/7/4 1:00,0.0948,0,0,0.7574,0,0.0325,0.7089,-0.5365,0
2004/7/4 1:15,0.0959,0,0,0.7425,0,0.0325,0.7011,-0.5224,0
2004/7/4 1:30,0.0952,0,0,0.7547,0,0.0323,0.7174,-0.5298,0
2004/7/4 1:45,0.0955,0,0,0.7073,0,0.0325,0.6535,-0.4884,0
2004/7/4 2:00,0.0953,0,0,0.7057,0,0.0324,0.6875,-0.4808,0
2004/7/4 2:15,0.0959,0,0,0.6965,0,0.0325,0.6375,-0.4758,0
2004/7/4 2:30,0.0959,0,0,0.6916,0,0.0325,0.651,-0.474,0
2004/7/4 2:45,0.0937,0,0,0.6762,0,0.0324,0.6195,-0.4584,0
2004/7/4 3:00,0.0936,0,0,0.6794,0,0.0324,0.6564,-0.4689,0
2004/7/4 3:15,0.0939,0,0,0.6751,0,0.0324,0.6152,-0.4535,0
2004/7/4 3:30,0.094,0,0,0.327,0,0.0324,0.288,-0.1164,0
2004/7/4 3:45,0.0945,0,0,0.1362,0,0.0324,0.0958,0.0901,0
2004/7/4 4:00,0.094,0,0,0.3825,0,0.0325,0.3192,-0.1695,0
2004/7/4 4:15,0.0939,0,0,0.4776,0,0.0325,0.4363,-0.2543,0
2004/7/4 4:30,0.0945,0,0,0.4692,0,0.0323,0.4434,-0.2686,0
2004/7/4 4:45,0.0946,0,0,0.4676,0,0.0327,0.398,-0.2454,0
2004/7/4 5:00,0.0953,0,0,0.4578,0,0.0327,0.412,-0.2347,0
2004/7/4 5:15,0.0955,0,0,0.2376,0,0.0325,0.2036,-0.0131,0
2004/7/4 5:30,0.094,0,0,0.4709,0,0.0324,0.4097,-0.2521,0
2004/7/4 5:45,0.0939,0,0,0.4673,0,0.0325,0.418,-0.2383,0
2004/7/4 6:00,0.095,0,0,0.2032,0,0.0325,0.1714,0.0249,0
2004/7/4 6:15,0.0953,0,0,0.4762,0,0.0325,0.4382,-0.2674,0
2004/7/4 6:30,0.0953,0,0,0.4693,0,0.0325,0.4026,-0.2386,0
2004/7/4 6:45,0.0956,0,0,0.2199,0,0.0327,0.1943,0.001,0
2004/7/4 7:00,0.2704,0,0,1.2492,0,0.0325,0.4052,-0.4136,0
2004/7/4 7:15,0.4054,0,0,0.778,0,0.0377,0.4274,-0.4746,0
2004/7/4 7:30,0.39,0,0,1.8575,0,0.0328,0.468,-0.5878,0
2004/7/4 7:45,0.3859,0,0,1.0178,0.0026,0.0324,0.5633,-0.7073,0
2004/7/4 8:00,0.3882,0,0,0.9063,0.3986,0.0325,0.5633,-0.6647,0
2004/7/4 8:15,0.3581,0,0,0.7572,0.3937,0.0325,0.4618,-0.5397,0
2004/7/4 8:30,0.3735,0,0,0.5774,0.0101,0.0325,0.2576,-0.3737,0
2004/7/4 8:45,0.3535,0,0,0.7204,0,0.0323,0.4362,-0.5344,0
2004/7/4 9:00,0.3535,0,0,0.7406,0,0.0323,0.4175,-0.5406,0
2004/7/4 9:15,0.2454,0,0,0.7389,0,0.0325,0.5763,-0.5436,0
2004/7/4 9:30,0.0965,0,0,0.6019,0,0.193,0.5358,-0.398,0
2004/7/4 9:45,0.0965,0,0,0.2759,0,0.159,0.2271,-0.0588,0
2004/7/4 10:00,0.0955,0,0,0.5211,0,0.0325,0.3498,-0.1862,0
2004/7/4 10:15,0.0956,0,0,3.5974,0,0.0327,0.4432,-0.1898,0
2004/7/4 10:30,0.0968,0,0,2.068,0,0.0328,0.3184,-0.126,0
2004/7/4 10:45,0.0962,0,0,3.0961,0,0.0328,0.2383,0.0164,0
2004/7/4 11:00,0.2199,0,0,6.6675,0,0.033,0.4306,-0.3096,0
2004/7/4 11:15,0.111,0,0,0.9445,0,0.0325,0.418,-0.2516,0
2004/7/4 11:30,0.0968,0,0,0.2507,0,0.0327,0.1584,0.0003,0
2004/7/4 11:45,0.0966,0,0,0.526,0,0.0327,0.4427,-0.2752,0
2004/7/4 12:00,0.0962,0,0,0.5109,0,0.0325,0.4304,-0.2635,0
2004/7/4 12:15,0.1002,0,0,0.559,0,0.0379,0.4772,-0.3018,0
2004/7/4 12:30,0.0955,0,0,0.6087,0,0.0325,0.5639,-0.3989,0
2004/7/4 12:45,0.0958,0,0,0.6201,0,0.0327,0.5808,-0.3538,0
2004/7/4 13:00,0.0971,0,0,0.2978,0,0.0328,0.2435,-0.1538,0
2004/7/4 13:15,0.0969,0,0,0.5315,0,0.0328,0.4802,-0.3876,0
2004/7/4 13:30,0.0969,0,0,0.6018,0,0.0328,0.5571,-0.4435,0
2004/7/4 13:45,0.0968,0,0,0.2847,0,0.0327,0.2359,-0.1404,0
2004/7/4 14:00,0.0962,0,0,0.63,0,0.0327,0.5921,-0.4838,0
2004/7/4 14:15,0.0965,0,0,0.6244,0,0.0325,0.5638,-0.4791,0
2004/7/4 14:30,0.2336,0,0,0.7462,0,0.0325,0.5701,-0.6036,0
2004/7/4 14:45,0.2858,0,0,0.797,0,0.0327,0.5792,-0.6661,0
2004/7/4 15:00,0.0966,0,0,0.6106,0,0.0325,0.5393,-0.4527,0
2004/7/4 15:15,0.0971,0,0,0.6566,0,0.0327,0.6199,-0.523,0
2004/7/4 15:30,0.0968,0,0,0.6746,0,0.0325,0.6314,-0.5028,0
2004/7/4 15:45,0.0959,0,0,0.5111,0,0.0325,0.4488,-0.3623,0
2004/7/4 16:00,0.0959,0,0,0.3966,0,0.0325,0.3493,-0.246,0
2004/7/4 16:15,0.0955,0,0,0.6206,0,0.0325,0.574,-0.4728,0
2004/7/4 16:30,0.0963,0,0,0.612,0,0.0325,0.5599,-0.4666,0
2004/7/4 16:45,0.096,0,0,0.6182,0,0.0327,0.5789,-0.4594,0
2004/7/4 17:00,0.3514,0,0,0.9881,0,0.0325,0.5499,-0.7384,0
2004/7/4 17:15,0.3829,0,0,0.9251,0,0.0327,0.5875,-0.7877,0
2004/7/4 17:30,0.2053,0,0,0.7825,0,0.0325,0.6283,-0.6509,0
2004/7/4 17:45,0.0963,0,0,0.6742,0,0.0325,0.6228,-0.5172,0
2004/7/4 18:00,0.0963,0,0,0.5882,0,0.0327,0.5404,-0.4402,0
2004/7/4 18:15,0.2159,0,0,0.4219,0,0.0325,0.2563,-0.2686,0
2004/7/4 18:30,0.3979,0,0,0.9187,0,0.0324,0.5712,-0.828,0
2004/7/4 18:45,0.5803,0,0,1.7811,0,0.0325,0.6666,-1.1611,0
2004/7/4 19:00,0.7167,0,0,3.4901,0,0.0495,1.2502,-2.2753,0
2004/7/4 19:15,0.9022,0,0,3.4128,0,0.0867,0.936,-1.7542,0
2004/7/4 19:30,0.8343,0,0,1.168,0,0.0815,0.6142,-0.5018,0
2004/7/4 19:45,0.8775,0,0,1.2123,0,0.0786,0.634,-0.6265,0
2004/7/4 20:00,0.8689,0,0,1.2067,0,0.0785,0.6382,-0.6129,0
2004/7/4 20:15,0.8747,0,0,1.2475,0,0.0786,0.7053,-0.6607,0
2004/7/4 20:30,0.842,0,0,1.1802,0,0.0562,0.6553,-0.4635,0
2004/7/4 20:45,0.8315,0,0,1.0752,0,0.0325,0.6808,-0.4872,0
2004/7/4 21:00,0.8421,0,0,1.1051,0,0.0327,0.6525,-0.487,0
2004/7/4 21:15,0.5288,0,0,0.4908,0,0.0325,0.2588,0.1889,0
2004/7/4 21:30,0.2553,0,0,0.6483,0,0.0324,0.5082,0.2405,0
2004/7/4 21:45,0.2565,0,0,0.7606,0,0.0325,0.5851,-0.1989,0
2004/7/4 22:00,0.1758,0,0,0.7056,0,0.0328,0.5717,-0.2877,0
2004/7/4 22:15,0.0958,0,0,0.7056,0,0.0325,0.5731,-0.2912,0
2004/7/4 22:30,0.0966,0,0,0.6988,0,0.0324,0.5617,-0.3465,0
2004/7/4 22:45,0.096,0,0,0.7301,0,0.0327,0.591,-0.417,0
2004/7/4 23:00,0.0952,0,0,0.7092,0,0.0325,0.5828,-0.4139,0
2004/7/4 23:15,0.0956,0,0,0.7259,0,0.0325,0.599,-0.4287,0
2004/7/4 23:30,0.0948,0,0,0.7602,0,0.0324,0.6388,-0.4912,0
2004/7/4 23:45,0.095,0,0,0.8849,0,0.0327,0.753,-0.5869,0
2004/7/5 0:00,0.0963,0,0,0.8428,0,0.0327,0.6968,-0.4926,0
2004/7/5 0:15,0.096,0,0,0.8673,0,0.0327,0.7387,-0.4896,0
2004/7/5 0:30,0.096,0,0,0.823,0,0.0325,0.6708,-0.455,0
2004/7/5 0:45,0.0962,0,0,0.815,0,0.0328,0.6785,-0.4465,0
2004/7/5 1:00,0.0965,0,0,0.816,0,0.0327,0.661,-0.4464,0
2004/7/5 1:15,0.0963,0,0,0.8025,0,0.0328,0.6772,-0.4441,0
2004/7/5 1:30,0.0971,0,0,0.8019,0,0.0331,0.6471,-0.4604,0
2004/7/5 1:45,0.0969,0,0,0.7978,0,0.0328,0.6708,-0.5014,0
2004/7/5 2:00,0.0963,0,0,0.8012,0,0.0328,0.6404,-0.485,0
2004/7/5 2:15,0.1122,0,0,0.5774,0,0.0327,0.4412,-0.2475,0
2004/7/5 2:30,0.4735,0,0,0.8042,0,0.0328,0.3639,-0.4704,0
2004/7/5 2:45,0.7456,0,0,1.5918,0,0.2694,0.6134,-0.9579,0
2004/7/5 3:00,0.5108,0,0,3.7274,0,0.0868,0.5652,-0.7302,0
2004/7/5 3:15,0.5076,0,0,2.3008,0,0.0863,0.573,-0.6543,0
2004/7/5 3:30,0.4889,0,0,4.5455,0,0.0827,0.5419,-0.6585,0